www.pogodaiklimat.ru

Погода и климат >> Архив погоды >> Иран >> Nehbandan


ПОГОДА в Nehbandan

  • Прогноз погоды в Nehbandan
  • Монитор погоды в Nehbandan
  • Климат города

АРХИВ ПОГОДЫ в Nehbandan

Время (UTC), дата Ветер
(напр.,м/с)
 
Видим.   Явления Облачность Т
(С)
Тd
(С)
f
(%)
Тe
(С)
Тes
(С)
Комфортность P
(гПа)
Po
(гПа)
Тmin
(С)
Tmax
(С)
R
(мм)
S
(см)
09 17.02 штиль 0 12 км 10/6 900 м
[Cb calv As op]
+16.4 +9.4 63 +16 +18 1009.3 878.7
12 17.02 Ю 6 3000 м пыльный позёмок 10/4 900 м
[Cb calv As op]
+17.3 +8.3 55 +17 +17 1006.9 876.6
15 17.02 Ю 3 30 км пыль 10/4 1050 м
[Sc diur, vesp As op]
+17.1 +6.4 49 +17 +17 1007.8 877.3 +17.9
18 17.02 Ю 4 4000 м пыльный позёмок 10/3 1050 м
[Sc diur, vesp As op]
+16.9 +5.4 47 +16 +16 1008.5 878.4
21 17.02 ЮЗ 9 3000 м пыльный позёмок 10/4 900 м
[Cb calv As op]
+15.7 +8.5 62 +14 +14 1006.7 877.2
00 18.02 ЮЗ 4 3000 м пыльный позёмок 10/4 1050 м
[Sc diur, vesp As op]
+15.5 +8.0 61 +15 +15 1005.4 876.2
03 18.02 Ю 8 3000 м пыльный позёмок 6/0
[As trans]
+15.1 +6.4 56 +13 +13 1007.1 877.5 +15.1
06 18.02 Ю 11 2000 м пыльный позёмок 9/1 1200 м
[Sc diur, vesp As trans]
+17.9 +7.5 51 +17 +17 1007.9 878.8
09 18.02 З 8 3000 м слабый ливневой дождь 10/3 900 м
[Cb calv As op]
+14.6 +9.5 71 +12 +13 1008.8 878.7
12 18.02 СЗ 3 15 км {ливн. осадки} 8/3 750 м
[Cb calv Ac As]
+15.8 +1.9 39 +15 +16 1009.3 879.1 0.7
15 18.02 штиль 0 15 км {ливн. осадки} 9/1 1200 м
[Sc diur, vesp As op]
+12.8 +2.3 49 +13 +13 1013.8 882.3 +18.4
18 18.02 С 2 15 км {ливн. осадки} 8/1 1200 м
[Sc diur, vesp Ac As]
+9.9 -0.4 49 +9 +9 1016.6 884.7 0.1
21 18.02 ЮВ 3 15 км 6/0
[Ac As]
+5.0 -0.2 69 +2 +2 1020.9 886.7
00 19.02 Ю 2 15 км 6/0
[Ac As]
+1.9 -2.4 73 -1 -1 1023.1 888.1
03 19.02 штиль 0 20 км 1/0
[Ac trans]
+0.3 -3.6 75 -1 -0 1026.9 890.4 +0.1
06 19.02 штиль 0 20 км ясно +6.7 -2.6 51 +6 +18 опасность
простуды
1029.3 893.2
09 19.02 СЗ 2 20 км 1/0
[Ac trans]
+11.2 -6.4 29 +11 +21 опасность
простуды
1027.2 891.3
12 19.02 штиль 0 20 км ясно +13.2 -13.1 15 +13 +16 1025.9 889.8
15 19.02 штиль 0 15 км ясно +8.3 -6.3 35 +8 +8 1027.9 890.2 +14.1
18 19.02 штиль 0 15 км ясно +5.2 -7.1 41 +5 +5 1027.1 890.2
21 19.02 штиль 0 15 км ясно +2.5 -5.9 54 +2 +2 1024.8 888.8
00 20.02 штиль 0 15 км ясно +0.8 -3.3 74 -0 -0 1023.6 887.7
03 20.02 штиль 0 15 км ясно -0.8 -3.5 82 -2 -1 1026.0 888.3 -0.8
06 20.02 штиль 0 20 км ясно +7.0 -3.8 46 +7 +19 опасность
простуды
1026.1 889.5
09 20.02 Ю 2 20 км ясно +11.2 -8.2 25 +11 +22 опасность
простуды
1023.1 887.1
12 20.02 ЮЗ 3 20 км ясно +13.2 -7.6 23 +12 +14 1020.8 885.2
15 20.02 штиль 0 15 км ясно +9.6 -8.8 26 +10 +10 1022.3 885.3 +13.9
18 20.02 штиль 0 15 км ясно +6.8 -10.2 29 +7 +7 1021.3 885.6
21 20.02 штиль 0 15 км ясно +2.2 -7.1 50 +2 +2 884.2
00 21.02 штиль 0 15 км ясно +1.0 -5.6 61 0 0 1018.2 883.0
06 21.02 штиль 0 20 км ясно +10.5 -5.5 32 +11 +23 опасность
простуды
1019.3 884.7
09 21.02 Ю 3 20 км ясно +13.4 -12.9 15 +13 +22 1017.6 882.7
12 21.02 З 2 20 км ясно +15.6 -15.0 11 +16 +18 1015.8 881.4
15 21.02 З 2 15 км ясно +10.7 -13.6 17 +10 +10 1017.6 881.6 +16.2
18 21.02 Ю 2 15 км ясно +7.2 -11.5 25 +6 +6 1016.7 882.4
21 21.02 штиль 0 15 км ясно +2.7 -7.4 47 +2 +2 1015.5 881.4
00 22.02 штиль 0 15 км ясно +0.3 -7.0 58 -0 -0 1015.2 880.8
03 22.02 штиль 0 20 км ясно -0.1 -5.4 67 -1 -0 1017.1 881.3 -1.4
06 22.02 штиль 0 20 км ясно +12.0 -10.6 19 +12 +24 опасность
простуды
1017.7 883.6
09 22.02 ЮВ 2 20 км ясно +15.3 -13.0 13 +15 +27 опасность
простуды
1015.6 881.5
12 22.02 ЮВ 5 20 км ясно +17.1 -12.4 12 +17 +18 1014.7 880.6
15 22.02 В 3 15 км ясно +11.6 -13.6 16 +11 +11 1017.7 881.9 +17.6
18 22.02 штиль 0 15 км ясно +8.1 -11.1 24 +8 +8 1017.1 883.3
21 22.02 штиль 0 15 км ясно +3.4 -7.9 43 +3 +3 1016.1 883.0
00 23.02 штиль 0 15 км ясно +2.8 -6.1 52 +2 +2 1016.5 882.8
03 23.02 СВ 2 20 км ясно +1.9 -6.8 52 -1 -0 1019.9 884.3 +1.1
06 23.02 В 2 20 км 1/0
[Ci fib]
+14.1 -11.5 16 +14 +23 1020.2 886.4
09 23.02 ЮВ 4 20 км 8/0
[Cs]
+16.0 -15.2 10 +15 +22 1018.0 883.9
12 23.02 ЮВ 5 20 км 10/1 1000 м
[Cu hum As op]
+15.5 -14.6 11 +15 +15 1017.3 883.0
15 23.02 ЮВ 3 15 км 5/0
[Ci sp]
+12.6 -13.4 15 +12 +12 1018.9 883.6 +17.9
18 23.02 штиль 0 15 км 1/0
[Ci fib]
+12.3 -12.9 16 +12 +12 1016.8 884.4
21 23.02 штиль 0 15 км 3/0
[Ci fib]
+9.0 -8.5 28 +9 +9 1015.3 882.8
00 24.02 штиль 0 15 км ясно +9.5 -2.3 43 +9 +9 1013.8 881.6
03 24.02 штиль 0 20 км 3/0
[Ac trans]
+8.4 -6.0 35 +8 +9 1015.1 881.8 +7.2

 

Местоположение метеостанции Nehbandan (Иран): широта 31.53 долгота 60.03 высота над уровнем моря 1211 м.

В архиве по умолчанию представлена погода в Nehbandan за последнюю неделю. Архивные данные за месяц целиком и за предыдущие месяцы, начиная с января 2011 года, Вы можете получить, выбрав интересующий диапазон дат из раскрывающегося списка и нажав кнопку "Ввод!".

Внимание! Время в таблицах - всемирное. Для получения местного времени необходимо прибавить поправку, которая в Nehbandan равна 3.5 ч.

Смотрите также архив погоды в соседних городах и на ближайших метеорологических станциях:

Погода в Zabol (Иран) (148 км)
Погода в Birjand (Иран) (168 км)
Погода в Zahedan (Иран) (243 км)
Погода в Bam (Иран) (312 км)
Погода в Kerman (Иран) (325 км)
Погода в Ferdous (Иран) (327 км)
Погода в Tabas (Иран) (371 км)
Погода в Nokkundi (Пакистан) (399 км)
Погода в Baft (Иран) (419 км)
Погода в Torbat-Heydarieh (Иран) (423 км)

Пояснения к столбцам:

Ветер - указаны скорость ветра в м/с - средняя за 10 мин, порывы в срок и между сроками (в фигурных скобках) и направление, откуда дует ветер: С - северный, СВ - северо-восточный, В - восточный, ЮВ - юго-восточный, Ю - южный, ЮЗ - юго-западный, З - западный, СЗ - северо-западный.
Видимость - горизонтальная дальность видимости в метрах или километрах. При видимости от 1 до 10 км при отсутствии осадков обычно наблюдается дымка, при ухудшении видимости до 1 км и менее - туман. В сухую погоду видимость может ухудшаться дымом, пылью или мглою.
Явления - указаны атмосферные явления, наблюдавшиеся в срок или в последний час перед сроком; фигурными скобками обозначены явления, наблюдавшиеся между сроками (за 1-3 часа до срока); квадратными скобками обозначены град или гололедные отложения с указанием их диаметра в мм.
Облачность - указаны через наклонную черту общая и нижняя облачность в баллах и высота нижней границы облаков в метрах; квадратными скобками обозначены формы облаков: Ci - перистые, Cs - перисто-слоистые, Cc - перисто-кучевые, Ac - высококучевые, As - высокослоистые, Sc - слоисто-кучевые, Ns - слоисто-дождевые, Cu - кучевые, Cb - кучево-дождевые. Подробнее классификацию облаков см. в Атласе облаков (PDF).
T - Температура воздуха - температура, измеренная на высоте 2 м над землей.
Td - Температура точки росы - температура, при понижении до которой содержащийся в воздухе водяной пар достигнет насыщения.
f - Относительная влажность воздуха - влажноcть воздуха, измеренная на высоте 2 м над землей.
Te - Эффективная температура - температура, которую ощущает одетый по сезону человек в тени. Характеристика душности погоды. При расчете учитывается влияние влажности воздуха и скорости ветра на теплоощущения человека.
Tes - Эффективная температура на солнце - температура, которую ощущает человек, с поправкой на солнечный нагрев. Характеристика знойности погоды. Зависит от высоты солнца над горизонтом, облачности и скорости ветра. Ночью, в пасмурную погоду, а также при ветре 12 м/с и более поправка равна нулю.
P - Атмосферное давление - приведенное к уровню моря атмосферное давление.
Po - Атмосферное давление - измеренное на уровне метеостанции атмосферное давление.
Tmin - Минимальная температура - минимум температуры воздуха на высоте 2 м над землей.
Tmax - Максимальная температура - максимум температуры воздуха на высоте 2 м над землей.
R - Количество осадков - Количество выпавших осадков, мм. При наведении курсора мыши на число - период времени, за который выпало указанное количество осадков.
S - Снежный покров - Высота снежного покрова, см. При наведении курсора мыши на число - состояние снежного покрова и степень покрытия местности в баллах.